Regional Weather Roundup
Issued by NWS

Home | Current Version | Previous Version | Graphics & Text | Print | Product List | Glossary On
Versions: 1 2 3 4 5 6 7 8 9 10 11 12 13 14 15 16 17 18 19 20 21 22 23 24 25 26 27 28 29 30 31 32 33 34 35 36 37 38 39 40 41 42 43 44 45 46 47 48 49 50
746
ASUS43 KBIS 300110
RWRND

NORTH DAKOTA REGIONAL WEATHER ROUNDUP
NATIONAL WEATHER SERVICE BISMARCK ND
800 PM CDT FRI JUL 29 2016

NOTE: "FAIR" INDICATES FEW OR NO CLOUDS BELOW 12,000 FEET WITH NO
SIGNIFICANT WEATHER AND/OR OBSTRUCTIONS TO VISIBILITY.


NDZ001>003-009>011-017-300200-
NORTHWEST NORTH DAKOTA

CITY           SKY/WX    TMP DP  RH WIND       PRES   REMARKS
WILLISTON      MOSUNNY   80  48  32 CALM      29.97S
MINOT          MOSUNNY   81  57  43 SW8       29.96F
MINOT AFB      MOSUNNY   77  59  53 SW5       29.95S
$$

NDZ018>021-031>035-040>046-300200-
SOUTHWEST NORTH DAKOTA

CITY           SKY/WX    TMP DP  RH WIND       PRES   REMARKS
BISMARCK       MOSUNNY   77  62  59 S12       29.97F
DICKINSON      SUNNY     76  56  49 NE7       29.96F
GARRISON         N/A     76  62  62 CALM      29.97F
HETTINGER ARPT PTSUNNY   83  49  30 SW6       29.98F
$$

NDZ004>008-012>016-024-026-027-054-300200-
NORTHEAST NORTH DAKOTA

CITY           SKY/WX    TMP DP  RH WIND       PRES   REMARKS
GRAND FORKS    PTCLDY    78  56  46 E3        29.97F
GRND FRKS AFB  PTCLDY    77  55  47 CALM      29.99F
DEVILS LAKE    CLOUDY    74  60  61 SE7       30.00S
$$

NDZ022-023-025-028>030-036>039-047>053-300200-
SOUTHEAST NORTH DAKOTA

CITY           SKY/WX    TMP DP  RH WIND       PRES   REMARKS
FARGO          CLEAR     77  61  57 NE3       29.99S
JAMESTOWN      SUNNY     74  63  68 S6        29.99F
$$





USA.gov is the U.S. government's official web portal to all federal, state and local government web resources and services.